This demonstration page uses our WeatherBlox Daily Observations layout. Learn more.

Left ArrowRight Arrow

Hourly Observations for January 2, 2022

Temp ( °F °C ) Dew Point ( °F °C ) Humidity (%) Winds ( mph kmh ) Pressure ( in mb ) Visibility ( mi km ) Precip ( " mm )
12:15 am 00:15 Mostly Cloudy 54 12 54 12 100 100 N N/A 29.62 1003 10 16 N/A
12:35 am 00:35 Mostly Cloudy 54 12 54 12 100 100 N N/A 29.61 1003 10 16 N/A
12:55 am 00:55 Mostly Cloudy 54 12 54 12 100 100 N N/A 29.61 1003 10 16 N/A
1:15 am 01:15 Cloudy with Light Rain 54 12 54 12 100 100 WSW 5 7 29.62 1003 10 16 N/A
1:35 am 01:35 Cloudy with Light Rain 54 12 54 12 100 100 S 3 6 29.62 1003 10 16 N/A
1:55 am 01:55 Cloudy with Light Rain 54 12 54 12 100 100 N N/A 29.62 1003 10 16 N/A
2:15 am 02:15 Cloudy with Light Rain 54 12 54 12 100 100 N N/A 29.63 1003 10 16 N/A
2:35 am 02:35 Cloudy with Light Rain 54 12 54 12 100 100 N N/A 29.64 1004 7 11 N/A
2:55 am 02:55 Cloudy with Rain 54 12 54 12 100 100 N N/A 29.64 1004 7 11 N/A
3:15 am 03:15 Cloudy with Light Rain 54 12 54 12 100 100 SSE 3 6 29.62 1003 10 16 N/A
3:35 am 03:35 Cloudy with Drizzle 54 12 54 12 100 100 SSE 5 7 29.59 1002 10 16 N/A
3:55 am 03:55 Cloudy 55 13 55 13 100 100 S 6 9 29.59 1002 10 16 N/A
4:15 am 04:15 Cloudy 55 13 55 13 100 100 S 8 13 29.57 1001 10 16 N/A
4:35 am 04:35 Cloudy with Light Rain 55 13 55 13 100 100 N N/A 29.60 1002 10 16 N/A
4:55 am 04:55 Mostly Cloudy with Light Rain 55 13 55 13 100 100 SSE 13 20 29.53 1000 10 16 N/A
5:15 am 05:15 Partly Cloudy 55 13 55 13 100 100 N N/A 29.57 1001 10 16 N/A
5:35 am 05:35 Clear 55 13 55 13 100 100 N N/A 29.58 1002 10 16 N/A
5:55 am 05:55 Partly Cloudy 55 13 55 13 100 100 N N/A 29.60 1002 10 16 N/A
6:15 am 06:15 Clear 55 13 55 13 100 100 N 3 6 29.61 1003 10 16 N/A
6:35 am 06:35 Partly Cloudy 55 13 55 13 100 100 N N/A 29.62 1003 10 16 N/A
6:55 am 06:55 Mostly Cloudy 54 12 54 12 100 100 N N/A 29.63 1003 10 16 N/A
7:15 am 07:15 Mostly Cloudy 54 12 54 12 100 100 N N/A 29.64 1004 10 16 N/A
7:35 am 07:35 Partly Cloudy 54 12 54 12 100 100 N N/A 29.63 1003 10 16 N/A
7:55 am 07:55 Sunny with Mist and Fog 52 11 52 11 100 100 N N/A 29.65 1004 3 4 N/A
8:15 am 08:15 Partly Cloudy 54 12 54 12 100 100 S 6 9 29.67 1005 10 16 N/A
8:35 am 08:35 Partly Cloudy 54 12 54 12 100 100 N N/A 29.67 1005 10 16 N/A
8:55 am 08:55 Mostly Cloudy 54 12 54 12 100 100 SW 6 9 29.69 1006 10 16 N/A
9:15 am 09:15 Mostly Cloudy 55 13 55 13 100 100 SSW 6 9 29.70 1006 10 16 N/A
9:35 am 09:35 Cloudy 55 13 55 13 100 100 SW 5 7 29.72 1006 10 16 N/A
9:55 am 09:55 Cloudy 57 14 57 14 100 100 WSW 5 7 29.72 1006 10 16 N/A
10:15 am 10:15 Cloudy 59 15 59 15 100 100 SW 3 6 29.73 1007 10 16 N/A
10:35 am 10:35 Mostly Cloudy 59 15 59 15 100 100 SW 5 7 29.73 1007 10 16 N/A
10:55 am 10:55 Mostly Cloudy 59 15 59 15 100 100 WSW 5 7 29.73 1007 10 16 N/A
11:15 am 11:15 Cloudy 59 15 59 15 100 100 WSW 5 7 29.72 1006 10 16 N/A
11:35 am 11:35 Cloudy 61 16 59 15 94 94 N N/A 29.72 1006 10 16 N/A
11:55 am 11:55 Mostly Cloudy 61 16 59 15 94 94 WNW 3 6 29.72 1006 10 16 N/A
12:15 pm 12:15 Partly Cloudy 61 16 59 15 94 94 N N/A 29.71 1006 10 16 N/A
12:35 pm 12:35 Partly Cloudy 61 16 59 15 94 94 N N/A 29.70 1006 10 16 N/A
12:55 pm 12:55 Partly Cloudy 61 16 59 15 94 94 N N/A 29.71 1006 10 16 N/A
1:15 pm 13:15 Partly Cloudy 61 16 57 14 88 88 NNE 3 6 29.71 1006 10 16 N/A
1:35 pm 13:35 Partly Cloudy 61 16 59 15 94 94 N N/A 29.72 1006 10 16 N/A
1:55 pm 13:55 Mostly Cloudy 61 16 57 14 88 88 NNW 5 7 29.73 1007 10 16 N/A
2:15 pm 14:15 Cloudy with Light Rain 61 16 59 15 94 94 WNW 3 6 29.74 1007 7 11 N/A
2:35 pm 14:35 Cloudy with Light Rain 61 16 55 13 83 83 WNW 6 9 29.74 1007 7 11 N/A
2:55 pm 14:55 Cloudy 59 15 57 14 94 94 W 3 6 29.74 1007 10 16 N/A
3:15 pm 15:15 Cloudy 59 15 55 13 88 88 WNW 3 6 29.75 1007 10 16 N/A
3:35 pm 15:35 Cloudy 59 15 55 13 88 88 WNW 5 7 29.77 1008 10 16 N/A
3:55 pm 15:55 Cloudy 59 15 55 13 88 88 NW 7 11 29.78 1008 10 16 N/A
4:15 pm 16:15 Cloudy 59 15 54 12 82 82 NNW 7 11 29.80 1009 10 16 N/A
4:35 pm 16:35 Cloudy 59 15 54 12 82 82 NNW 9 15 29.82 1010 10 16 N/A
4:55 pm 16:55 Cloudy 59 15 52 11 77 77 NNW 12 19 29.84 1010 10 16 N/A
5:15 pm 17:15 Cloudy 55 13 50 10 82 82 NNW 16 26 29.86 1011 10 16 N/A
5:35 pm 17:35 Mostly Cloudy 55 13 46 8 72 72 NNW 16 26 29.87 1012 10 16 N/A
5:55 pm 17:55 Mostly Cloudy 54 12 46 8 77 77 NNW 18 30 29.88 1012 10 16 N/A
6:15 pm 18:15 Mostly Cloudy 54 12 45 7 72 72 NNW 10 17 29.88 1012 10 16 N/A
6:35 pm 18:35 Partly Cloudy 54 12 45 7 72 72 NNW 20 31 29.90 1013 10 16 N/A
6:55 pm 18:55 Mostly Cloudy 52 11 43 6 72 72 NNW 17 28 29.91 1013 10 16 N/A
7:15 pm 19:15 Cloudy 52 11 43 6 72 72 N 12 19 29.93 1014 10 16 N/A
7:55 pm 19:55 Partly Cloudy 46 8 41 5 82 82 N 17 28 29.96 1015 10 16 N/A
8:15 pm 20:15 Clear 46 8 39 4 76 76 N 10 17 29.96 1015 10 16 N/A
8:35 pm 20:35 Clear 46 8 37 3 71 71 NNW 14 22 29.98 1015 10 16 N/A
8:55 pm 20:55 Clear 45 7 37 3 76 76 N 14 22 29.98 1015 10 16 N/A
9:15 pm 21:15 Clear 45 7 37 3 76 76 N 15 24 29.99 1016 10 16 N/A
9:35 pm 21:35 Clear 45 7 36 2 71 71 N 13 20 30.01 1016 10 16 N/A
9:55 pm 21:55 Clear 43 6 36 2 76 76 N 13 20 30.01 1016 10 16 N/A
10:15 pm 22:15 Partly Cloudy 43 6 36 2 76 76 NNW 15 24 30.01 1016 10 16 N/A
10:35 pm 22:35 Clear 43 6 34 1 71 71 N 15 24 30.04 1017 10 16 N/A
10:55 pm 22:55 Partly Cloudy 41 5 34 1 76 76 NNW 15 24 30.04 1017 10 16 N/A
11:15 pm 23:15 Clear 41 5 34 1 76 76 N 9 15 30.06 1018 10 16 N/A
11:35 pm 23:35 Mostly Cloudy 41 5 34 1 76 76 N 12 19 30.06 1018 10 16 N/A
11:55 pm 23:55 Cloudy 41 5 34 1 76 76 N 10 17 30.06 1018 10 16 N/A

Powered by AerisWeather